Wind_Speed
30 29 28 27 27 26 26 25 25 25 26 25 25 26 26 26 26 26 26 27 27 27 27 28 28 29 29 30 30 30 30 31 30 30 31 31 31 31 31 31 31 32 32
31 31 29 28 28 28 28 27 27 27 27 27 27 27 27 27 27 27 28 28 28 28 28 29 29 30 30 31 31 31 31 31 32 32 32 32 32 32 32 32 32 31 31
31 31 30 30 29 29 29 29 29 29 29 29 29 29 29 29 29 29 29 29 29 29 29 30 30 31 31 32 33 32 32 32 33 33 33 33 33 32 32 32 31 31 31
32 31 32 32 31 31 31 30 30 30 30 30 30 30 30 29 29 30 30 30 30 30 31 31 31 32 32 33 34 34 34 34 34 33 33 33 33 32 32 32 31 31 30
34 33 33 33 33 33 32 31 31 31 31 31 31 30 30 30 30 30 31 31 31 32 32 32 32 33 33 34 34 34 35 35 34 35 34 34 33 33 33 32 32 31 31
36 35 34 33 34 34 34 33 33 33 32 32 32 32 32 31 31 31 32 32 33 33 33 33 33 34 34 34 35 35 36 36 36 36 35 35 34 34 33 33 32 32 32
37 36 35 34 34 34 34 34 34 34 34 33 33 33 33 32 32 32 32 33 33 33 33 33 33 34 35 36 36 36 36 36 36 36 36 35 35 34 33 33 33 33 33
37 36 36 36 34 34 35 36 35 34 34 34 34 33 33 33 33 33 33 33 34 34 33 33 33 34 35 36 36 36 36 36 36 36 36 35 34 34 34 34 34 34 33
40 39 37 37 37 36 34 35 36 35 34 34 34 34 33 33 33 33 33 34 34 34 34 33 34 34 35 36 36 36 36 35 35 35 35 35 35 35 34 34 34 34 34
41 40 38 37 37 37 36 35 35 36 35 34 34 34 34 33 33 34 34 34 34 34 34 34 34 34 35 35 35 35 35 35 35 34 34 34 34 34 34 33 34 34 34
41 40 40 39 38 38 38 37 36 36 36 35 35 34 35 34 34 35 34 34 34 35 35 35 34 34 35 34 34 34 34 34 34 33 33 33 33 33 33 33 33 33 33
41 41 41 41 40 39 39 38 36 36 36 36 35 35 35 35 35 35 34 34 34 35 35 35 34 34 35 34 34 34 34 33 33 32 32 32 32 32 32 32 32 33 34
41 41 40 40 40 39 38 37 38 37 36 36 35 35 35 34 35 35 34 34 34 35 35 35 34 34 33 33 33 33 33 34 33 32 32 31 31 31 31 32 32 33 34
40 40 40 40 40 39 38 37 38 37 36 36 35 35 35 34 34 34 35 35 35 35 35 34 33 33 33 33 33 33 33 33 32 31 31 30 30 30 31 32 32 32 33
41 40 41 40 39 39 38 38 37 37 37 35 35 35 34 34 33 33 33 33 34 34 33 33 33 33 33 33 33 32 32 32 31 30 29 29 29 30 31 31 32 32 33
41 41 41 42 40 40 38 36 37 38 37 36 36 35 34 34 34 34 34 34 34 33 33 33 34 34 33 33 33 33 32 32 32 31 30 30 30 30 31 32 32 32 33
40 41 41 41 41 40 39 38 37 38 38 38 37 36 36 35 34 34 34 34 34 34 34 34 34 34 34 33 33 33 32 33 32 32 31 31 31 31 32 32 32 32 32
41 42 42 41 40 40 40 39 38 38 38 37 37 37 37 36 35 34 34 34 34 34 34 34 34 34 34 34 33 33 33 33 32 32 32 31 31 32 32 32 32 32 31
42 42 42 42 42 41 39 39 39 38 38 37 37 38 37 36 35 34 34 34 33 34 34 34 34 34 35 35 34 34 34 34 33 32 32 31 32 32 31 31 31 31 30
41 42 42 42 41 41 41 40 40 38 38 38 37 37 36 36 35 35 35 35 34 34 34 34 34 34 34 34 33 33 33 33 32 31 31 32 32 32 31 30 30 30 29
41 42 42 42 42 42 41 41 41 40 39 39 38 37 37 36 35 36 36 35 35 35 35 34 33 32 32 32 32 32 32 31 31 31 31 31 31 31 30 30 29 29 28
41 41 41 42 41 42 41 41 41 40 40 40 39 38 37 36 37 36 36 35 35 34 34 33 33 33 32 32 32 32 31 30 30 31 30 29 29 29 29 28 28 28 27
40 40 40 41 40 40 40 41 41 41 40 40 40 39 38 38 38 37 36 36 35 35 34 34 33 33 33 31 30 30 30 30 30 29 29 28 28 28 28 27 28 27 27
39 39 40 40 40 40 41 41 40 40 40 40 40 39 38 38 38 36 36 35 35 34 34 33 33 33 31 30 29 29 29 29 28 28 28 28 27 27 26 26 26 26 25
40 40 40 40 40 41 41 41 41 40 40 40 39 39 38 37 37 37 36 35 34 34 33 32 32 32 31 30 29 28 28 27 26 26 26 26 26 26 25 24 24 24 23
39 39 39 39 40 40 40 40 41 40 40 40 39 39 39 38 37 37 35 34 34 33 33 33 32 31 31 30 29 28 27 25 24 24 25 25 24 24 23 22 23 23 23
Wind_Direction
243 245 248 252 255 258 261 264 268 271 273 276 279 281 283 285 288 290 291 293 295 295 297 299 301 302 302 302 302 302 301 301 300 300 300 300 299 297 295 294 293 293 292
244 245 248 252 255 258 262 265 268 270 272 275 277 279 281 284 286 288 290 292 293 294 296 298 300 301 302 301 301 301 300 300 299 299 299 299 299 298 296 295 295 294 293
246 248 249 253 256 260 262 265 268 270 272 274 277 279 281 282 285 287 289 290 292 293 295 297 298 299 301 301 300 300 300 299 299 298 298 298 298 298 297 296 295 294 292
246 248 250 253 256 260 263 265 267 270 273 274 276 278 281 283 284 286 288 290 291 292 293 294 296 298 299 300 299 299 299 299 298 298 298 297 297 297 297 296 295 294 293
247 249 252 254 257 260 263 265 268 271 273 274 275 277 280 282 285 286 287 289 289 290 292 293 295 297 298 299 299 299 299 298 297 297 297 296 295 295 295 295 294 293 293
249 252 254 256 258 260 263 266 269 271 273 274 275 277 279 281 284 285 286 287 289 291 292 293 295 296 297 299 299 299 298 297 296 295 295 295 294 293 293 293 293 292 292
250 253 256 257 258 261 263 266 269 270 271 273 274 276 278 280 282 284 286 288 290 292 293 293 295 296 298 299 299 299 298 297 296 295 294 294 294 293 292 291 292 292 291
250 253 255 257 259 262 263 265 268 270 270 271 273 275 277 278 281 283 285 287 289 291 293 295 296 297 299 300 300 299 298 298 298 295 294 293 294 293 292 291 291 291 291
250 253 255 257 258 261 265 265 265 267 269 270 272 274 276 277 280 282 284 287 289 292 293 295 297 298 300 301 300 300 299 299 298 296 295 293 293 293 292 291 291 290 290
251 254 255 257 258 259 261 264 265 266 268 269 271 274 276 278 280 282 284 287 289 291 293 294 296 297 298 299 300 300 300 300 299 297 296 295 294 293 292 291 291 290 289
251 254 257 256 258 260 261 263 264 265 266 268 271 273 274 277 280 282 285 286 288 290 292 294 295 296 297 299 299 301 302 301 300 299 298 296 296 295 293 292 291 290 290
252 254 257 258 259 261 263 264 265 265 265 269 271 274 275 277 280 282 283 285 287 289 291 294 295 296 296 298 300 301 302 302 300 299 299 298 298 295 294 292 292 291 291
253 254 257 260 261 263 265 266 265 267 269 269 272 274 276 277 278 280 281 284 286 289 291 294 296 296 297 300 301 301 302 303 301 299 299 298 297 296 295 293 292 292 292
254 256 258 261 261 263 265 266 265 267 269 270 272 273 275 278 278 279 281 282 285 288 291 293 296 297 297 300 301 302 302 304 303 301 299 297 297 297 297 294 293 295 295
255 256 257 259 262 264 266 265 265 266 268 269 273 274 275 277 279 280 281 283 286 287 289 292 295 297 298 300 301 301 302 303 302 300 299 298 298 298 298 297 296 298 298
256 257 259 260 262 265 264 264 266 267 269 270 272 273 276 278 279 280 282 283 285 287 289 292 294 295 297 299 300 301 300 301 302 301 299 299 299 299 299 299 300 300 300
257 259 260 261 262 264 265 266 268 269 269 269 270 272 275 277 278 280 282 284 285 286 288 291 293 295 296 298 299 300 300 300 300 300 300 299 299 299 300 302 301 301 301
259 261 261 262 262 264 266 266 267 268 269 269 270 272 274 275 277 278 281 283 284 286 289 291 292 292 294 296 298 297 298 299 299 299 299 299 299 300 301 302 302 303 303
260 262 263 263 262 263 265 265 265 267 268 270 270 271 273 274 277 279 280 282 284 286 288 290 292 292 293 294 296 296 295 297 297 297 297 297 298 300 302 304 305 304 304
260 262 263 263 263 263 263 264 266 267 268 268 269 271 272 273 275 277 279 280 282 284 286 289 292 292 293 294 295 295 295 295 296 296 296 297 298 300 301 303 304 305 304
260 261 263 264 264 264 264 264 265 265 265 266 267 269 270 271 273 275 277 278 279 282 284 287 289 291 292 293 294 295 295 296 296 297 297 297 298 300 302 303 305 306 305
261 262 264 265 265 265 265 265 264 263 263 265 266 267 268 270 271 273 275 276 278 280 282 284 287 289 291 292 294 294 295 295 296 297 298 298 299 300 302 304 305 306 305
263 263 265 265 265 266 266 264 264 262 262 264 265 265 267 268 270 271 272 273 275 278 280 282 284 286 290 292 293 294 295 296 297 298 299 299 299 300 301 302 303 304 303
263 264 265 265 265 265 265 264 264 264 263 265 265 265 266 266 268 269 270 271 273 275 278 280 282 286 288 290 291 292 294 296 297 299 300 300 300 300 300 301 302 304 304
263 264 265 265 265 265 265 265 264 263 264 265 264 264 264 265 265 266 267 269 270 273 275 278 282 284 285 286 288 291 295 296 297 298 301 302 302 301 301 301 303 304 305
264 265 265 264 265 266 266 265 264 264 264 264 263 263 263 264 264 263 265 267 267 270 272 275 279 280 282 284 287 289 292 294 295 297 300 302 304 305 305 304 305 306 306
Height
5831 5832 5833 5834 5835 5836 5836 5836 5835 5835 5834 5833 5832 5831 5829 5828 5826 5824 5822 5820 5818 5816 5813 5811 5808 5805 5801 5798 5795 5792 5788 5785 5782 5779 5776 5772 5769 5766 5763 5760 5758 5756 5753
5824 5826 5827 5828 5829 5829 5830 5829 5829 5829 5828 5827 5826 5825 5823 5822 5820 5818 5816 5814 5812 5810 5807 5804 5802 5798 5795 5792 5788 5785 5782 5779 5775 5772 5769 5766 5762 5759 5756 5753 5750 5748 5746
5817 5819 5821 5822 5822 5823 5823 5823 5823 5822 5822 5821 5819 5818 5817 5815 5813 5812 5810 5808 5806 5803 5801 5798 5795 5792 5788 5785 5782 5778 5775 5772 5769 5765 5762 5758 5755 5752 5749 5746 5743 5741 5738
5810 5812 5814 5815 5816 5816 5816 5816 5816 5816 5815 5814 5813 5812 5810 5808 5807 5805 5803 5801 5799 5796 5794 5791 5788 5785 5781 5778 5774 5771 5768 5764 5761 5758 5754 5751 5748 5745 5742 5739 5736 5733 5730
5803 5804 5806 5808 5808 5809 5809 5809 5809 5809 5808 5807 5806 5805 5803 5802 5800 5798 5796 5794 5791 5789 5786 5784 5781 5777 5774 5770 5767 5764 5760 5757 5753 5750 5746 5743 5740 5737 5734 5731 5728 5726 5723
5796 5797 5798 5800 5801 5801 5802 5802 5801 5801 5800 5800 5799 5798 5796 5794 5793 5790 5788 5786 5784 5782 5779 5776 5773 5770 5766 5763 5759 5755 5752 5748 5745 5741 5738 5735 5732 5729 5726 5723 5721 5718 5716
5788 5789 5791 5792 5792 5793 5794 5794 5794 5793 5793 5792 5791 5790 5789 5787 5785 5783 5781 5779 5777 5774 5771 5769 5766 5762 5759 5755 5751 5747 5743 5740 5736 5732 5729 5726 5723 5720 5717 5715 5712 5710 5707
5779 5781 5783 5784 5785 5785 5785 5786 5786 5785 5785 5784 5784 5782 5781 5781 5778 5776 5774 5772 5769 5767 5764 5762 5758 5755 5751 5747 5742 5738 5734 5731 5727 5723 5720 5717 5714 5711 5708 5706 5704 5701 5699
5771 5773 5774 5775 5776 5776 5777 5777 5777 5777 5777 5776 5775 5775 5773 5773 5771 5770 5767 5764 5762 5760 5757 5754 5751 5747 5743 5738 5734 5730 5726 5722 5718 5715 5711 5708 5705 5702 5699 5696 5694 5692 5690
5762 5764 5766 5766 5767 5768 5768 5769 5768 5768 5768 5768 5767 5766 5765 5764 5763 5762 5760 5757 5755 5752 5749 5747 5743 5740 5735 5731 5727 5723 5718 5714 5710 5706 5703 5699 5696 5693 5691 5688 5686 5684 5681
5754 5755 5756 5757 5758 5759 5760 5760 5760 5760 5760 5760 5759 5758 5757 5756 5755 5753 5752 5750 5747 5745 5742 5739 5736 5732 5728 5724 5720 5715 5711 5707 5702 5698 5694 5691 5688 5685 5682 5679 5677 5675 5673
5745 5746 5748 5749 5749 5750 5751 5751 5752 5751 5751 5751 5751 5750 5749 5748 5747 5745 5744 5742 5740 5737 5734 5731 5728 5724 5720 5717 5712 5708 5704 5699 5695 5691 5687 5683 5680 5677 5674 5671 5669 5667 5665
5736 5737 5738 5740 5740 5741 5742 5742 5743 5743 5743 5743 5742 5742 5741 5740 5738 5737 5736 5734 5732 5729 5726 5723 5720 5717 5713 5709 5705 5701 5697 5692 5687 5683 5679 5676 5672 5669 5666 5664 5661 5659 5656
5726 5728 5729 5730 5731 5732 5733 5734 5734 5735 5735 5735 5734 5733 5732 5731 5730 5729 5728 5726 5724 5722 5719 5716 5712 5709 5706 5702 5698 5694 5690 5685 5680 5675 5671 5668 5665 5662 5659 5656 5653 5650 5647
5717 5718 5720 5721 5722 5723 5723 5724 5725 5725 5726 5726 5725 5725 5724 5723 5722 5721 5719 5718 5716 5714 5712 5709 5705 5702 5698 5695 5691 5687 5682 5678 5673 5668 5664 5661 5658 5655 5652 5649 5646 5642 5639
5707 5708 5710 5712 5713 5713 5714 5715 5715 5716 5717 5717 5717 5716 5716 5715 5714 5713 5711 5710 5708 5706 5704 5701 5698 5694 5691 5687 5683 5679 5675 5670 5666 5662 5658 5655 5652 5649 5645 5642 5638 5634 5630
5698 5699 5701 5702 5703 5704 5705 5705 5706 5707 5707 5707 5707 5707 5706 5706 5705 5704 5703 5701 5699 5697 5696 5693 5690 5687 5683 5680 5676 5672 5667 5663 5659 5655 5652 5648 5645 5642 5638 5634 5631 5627 5623
5688 5689 5691 5692 5693 5694 5695 5696 5697 5697 5698 5698 5698 5697 5697 5697 5696 5696 5694 5693 5691 5689 5687 5685 5682 5679 5676 5672 5668 5664 5660 5656 5653 5649 5645 5641 5638 5634 5630 5627 5623 5619 5615
5678 5680 5681 5682 5683 5684 5685 5686 5687 5687 5688 5688 5688 5688 5688 5688 5687 5687 5685 5684 5683 5681 5679 5676 5674 5671 5668 5664 5660 5657 5653 5649 5645 5642 5638 5634 5630 5627 5623 5619 5615 5611 5607
5669 5670 5671 5672 5673 5674 5675 5676 5676 5677 5678 5678 5679 5679 5679 5678 5678 5677 5676 5675 5674 5672 5670 5668 5666 5663 5659 5656 5652 5649 5645 5642 5638 5635 5631 5627 5623 5620 5616 5612 5608 5604 5600
5658 5660 5661 5661 5662 5663 5664 5665 5666 5667 5667 5668 5669 5669 5669 5669 5668 5667 5667 5666 5665 5663 5661 5659 5657 5654 5651 5648 5644 5641 5638 5634 5631 5627 5624 5620 5617 5613 5609 5606 5601 5597 5593
5648 5649 5650 5651 5651 5652 5653 5654 5655 5656 5657 5657 5658 5658 5659 5659 5658 5658 5657 5656 5655 5654 5653 5651 5649 5646 5643 5640 5636 5633 5630 5627 5624 5621 5617 5613 5610 5606 5602 5599 5595 5591 5587
5637 5638 5639 5640 5641 5641 5642 5642 5643 5644 5645 5646 5647 5647 5648 5648 5648 5648 5647 5646 5646 5644 5643 5642 5640 5637 5635 5632 5629 5626 5622 5619 5616 5612 5609 5606 5603 5599 5596 5592 5588 5585 5581
5626 5627 5628 5628 5629 5630 5630 5631 5631 5632 5634 5635 5635 5636 5637 5637 5637 5637 5637 5637 5636 5635 5635 5633 5632 5629 5627 5624 5621 5618 5615 5612 5608 5605 5602 5599 5596 5593 5589 5585 5582 5578 5575
5615 5616 5617 5617 5618 5618 5619 5619 5620 5621 5622 5623 5624 5625 5626 5626 5627 5627 5627 5627 5626 5626 5624 5624 5622 5621 5618 5616 5613 5610 5608 5605 5602 5599 5596 5593 5589 5586 5583 5580 5576 5573 5569
5604 5605 5605 5605 5606 5607 5607 5608 5609 5610 5611 5612 5613 5614 5615 5615 5616 5616 5616 5616 5617 5616 5615 5615 5613 5612 5610 5607 5605 5603 5600 5598 5596 5593 5590 5587 5583 5580 5578 5575 5571 5567 5564